{"data":{"norad_id":64566,"epoch":"2026-09-21T22:50:59.630784Z","epoch_age_seconds":56286,"freshness":"FRESH","line1":"1 64566U 25135AQ  26264.95207906  .00001139  00000+0  11244-3 0  9999","line2":"2 64566  97.7803  18.0585 0001871  28.3692 331.7630 14.93933335 68322","mean_motion":14.93933335,"eccentricity":0.0001871,"inclination_deg":97.7803,"raan_deg":18.0585,"arg_perigee_deg":28.3692,"mean_anomaly_deg":331.763,"bstar":0.00011244,"rev_number":6832,"period_min":96.38984325897,"perigee_km":584.38261781229,"apogee_km":586.98848021014,"semimajor_km":6963.8225490112,"source":"CELESTRAK","updated_at":"2026-09-22T09:00:29.849645Z"}}